Year,Month,Day,Hour,Minute,Value (Times are PST for windgust in km/hr)
2008,06,21,00,00,1.60
2008,06,21,00,01,1.60
2008,06,21,00,02,1.60
2008,06,21,00,03,1.60
2008,06,21,00,04,0.00
2008,06,21,00,05,0.00
2008,06,21,00,06,0.00
2008,06,21,00,07,0.00
2008,06,21,00,08,0.00
2008,06,21,00,09,0.00
2008,06,21,00,10,0.00
2008,06,21,00,11,0.00
2008,06,21,00,12,0.00
2008,06,21,00,13,1.60
2008,06,21,00,14,0.00
2008,06,21,00,15,0.00
2008,06,21,00,16,0.00
2008,06,21,00,17,1.60
2008,06,21,00,18,1.60
2008,06,21,00,19,1.60
2008,06,21,00,20,1.60
2008,06,21,00,21,1.60
2008,06,21,00,22,1.60
2008,06,21,00,23,1.60
2008,06,21,00,24,0.00
2008,06,21,00,25,1.60
2008,06,21,00,26,1.60
2008,06,21,00,27,1.60
2008,06,21,00,28,3.20
2008,06,21,00,29,1.60
2008,06,21,00,30,1.60
2008,06,21,00,31,0.00
2008,06,21,00,32,0.00
2008,06,21,00,33,1.60
2008,06,21,00,34,1.60
2008,06,21,00,35,3.20
2008,06,21,00,36,3.20
2008,06,21,00,37,6.40
2008,06,21,00,38,6.40
2008,06,21,00,39,6.40
2008,06,21,00,40,4.80
2008,06,21,00,41,4.80
2008,06,21,00,42,4.80
2008,06,21,00,43,3.20
2008,06,21,00,44,3.20
2008,06,21,00,45,3.20
2008,06,21,00,46,4.80
2008,06,21,00,47,3.20
2008,06,21,00,48,3.20
2008,06,21,00,49,3.20
2008,06,21,00,50,3.20
2008,06,21,00,51,3.20
2008,06,21,00,52,3.20
2008,06,21,00,53,3.20
2008,06,21,00,54,1.60
2008,06,21,00,55,1.60
2008,06,21,00,56,1.60
2008,06,21,00,57,1.60
2008,06,21,00,58,1.60
2008,06,21,00,59,3.20
2008,06,21,01,00,3.20
2008,06,21,01,01,3.20
2008,06,21,01,02,3.20
2008,06,21,01,03,3.20
2008,06,21,01,04,3.20
2008,06,21,01,05,1.60
2008,06,21,01,06,3.20
2008,06,21,01,07,0.00
2008,06,21,01,08,1.60
2008,06,21,01,09,1.60
2008,06,21,01,10,1.60
2008,06,21,01,11,1.60
2008,06,21,01,12,1.60
2008,06,21,01,13,1.60
2008,06,21,01,14,0.00
2008,06,21,01,15,1.60
2008,06,21,01,16,1.60
2008,06,21,01,17,1.60
2008,06,21,01,18,0.00
2008,06,21,01,19,1.60
2008,06,21,01,20,1.60
2008,06,21,01,21,1.60
2008,06,21,01,22,1.60
2008,06,21,01,23,1.60
2008,06,21,01,24,1.60
2008,06,21,01,25,0.00
2008,06,21,01,26,1.60
2008,06,21,01,27,1.60
2008,06,21,01,28,0.00
2008,06,21,01,29,1.60
2008,06,21,01,30,0.00
2008,06,21,01,31,1.60
2008,06,21,01,32,0.00
2008,06,21,01,33,1.60
2008,06,21,01,34,0.00
2008,06,21,01,35,1.60
2008,06,21,01,36,3.20
2008,06,21,01,37,3.20
2008,06,21,01,38,4.80
2008,06,21,01,39,3.20
2008,06,21,01,40,6.40
2008,06,21,01,41,4.80
2008,06,21,01,42,6.40
2008,06,21,01,43,6.40
2008,06,21,01,44,4.80
2008,06,21,01,45,4.80
2008,06,21,01,46,3.20
2008,06,21,01,47,3.20
2008,06,21,01,48,3.20
2008,06,21,01,49,1.60
2008,06,21,01,50,1.60
2008,06,21,01,51,3.20
2008,06,21,01,52,1.60
2008,06,21,01,53,1.60
2008,06,21,01,54,1.60
2008,06,21,01,55,1.60
2008,06,21,01,56,1.60
2008,06,21,01,57,1.60
2008,06,21,01,58,1.60
2008,06,21,01,59,0.00
2008,06,21,02,00,0.00
2008,06,21,02,01,0.00
2008,06,21,02,02,0.00
2008,06,21,02,03,0.00
2008,06,21,02,04,0.00
2008,06,21,02,05,0.00
2008,06,21,02,06,0.00
2008,06,21,02,07,1.60
2008,06,21,02,08,1.60
2008,06,21,02,09,3.20
2008,06,21,02,10,3.20
2008,06,21,02,11,4.80
2008,06,21,02,12,6.40
2008,06,21,02,13,6.40
2008,06,21,02,14,4.80
2008,06,21,02,15,4.80
2008,06,21,02,16,4.80
2008,06,21,02,17,4.80
2008,06,21,02,18,3.20
2008,06,21,02,19,1.60
2008,06,21,02,20,3.20
2008,06,21,02,21,4.80
2008,06,21,02,22,3.20
2008,06,21,02,23,3.20
2008,06,21,02,24,3.20
2008,06,21,02,25,1.60
2008,06,21,02,26,1.60
2008,06,21,02,27,3.20
2008,06,21,02,28,1.60
2008,06,21,02,29,3.20
2008,06,21,02,30,3.20
2008,06,21,02,31,6.40
2008,06,21,02,32,4.80
2008,06,21,02,33,4.80
2008,06,21,02,34,4.80
2008,06,21,02,35,4.80
2008,06,21,02,36,4.80
2008,06,21,02,37,4.80
2008,06,21,02,38,4.80
2008,06,21,02,39,4.80
2008,06,21,02,40,3.20
2008,06,21,02,41,3.20
2008,06,21,02,42,3.20
2008,06,21,02,43,3.20
2008,06,21,02,44,3.20
2008,06,21,02,45,3.20
2008,06,21,02,46,4.80
2008,06,21,02,47,3.20
2008,06,21,02,48,3.20
2008,06,21,02,49,3.20
2008,06,21,02,50,3.20
2008,06,21,02,51,3.20
2008,06,21,02,52,3.20
2008,06,21,02,53,3.20
2008,06,21,02,54,3.20
2008,06,21,02,55,3.20
2008,06,21,02,56,3.20
2008,06,21,02,57,0.00
2008,06,21,02,58,1.60
2008,06,21,02,59,1.60
2008,06,21,03,00,1.60
2008,06,21,03,01,1.60
2008,06,21,03,02,1.60
2008,06,21,03,03,1.60
2008,06,21,03,04,1.60
2008,06,21,03,05,0.00
2008,06,21,03,06,0.00
2008,06,21,03,07,0.00
2008,06,21,03,08,0.00
2008,06,21,03,09,0.00
2008,06,21,03,10,1.60
2008,06,21,03,11,0.00
2008,06,21,03,12,0.00
2008,06,21,03,13,0.00
2008,06,21,03,14,0.00
2008,06,21,03,15,0.00
2008,06,21,03,16,0.00
2008,06,21,03,17,0.00
2008,06,21,03,18,0.00
2008,06,21,03,19,0.00
2008,06,21,03,20,0.00
2008,06,21,03,21,0.00
2008,06,21,03,22,1.60
2008,06,21,03,23,1.60
2008,06,21,03,24,0.00
2008,06,21,03,25,4.80
2008,06,21,03,26,6.40
2008,06,21,03,27,4.80
2008,06,21,03,28,3.20
2008,06,21,03,29,4.80
2008,06,21,03,30,3.20
2008,06,21,03,31,1.60
2008,06,21,03,32,1.60
2008,06,21,03,33,3.20
2008,06,21,03,34,3.20
2008,06,21,03,35,3.20
2008,06,21,03,36,3.20
2008,06,21,03,37,3.20
2008,06,21,03,38,3.20
2008,06,21,03,39,1.60
2008,06,21,03,40,1.60
2008,06,21,03,41,3.20
2008,06,21,03,42,1.60
2008,06,21,03,43,1.60
2008,06,21,03,44,1.60
2008,06,21,03,45,1.60
2008,06,21,03,46,1.60
2008,06,21,03,47,1.60
2008,06,21,03,48,3.20
2008,06,21,03,49,3.20
2008,06,21,03,50,3.20
2008,06,21,03,51,3.20
2008,06,21,03,52,3.20
2008,06,21,03,53,3.20
2008,06,21,03,54,3.20
2008,06,21,03,55,3.20
2008,06,21,03,56,3.20
2008,06,21,03,57,1.60
2008,06,21,03,58,4.80
2008,06,21,03,59,3.20
2008,06,21,04,00,3.20
2008,06,21,04,01,4.80
2008,06,21,04,02,6.40
2008,06,21,04,03,4.80
2008,06,21,04,04,6.40
2008,06,21,04,05,6.40
2008,06,21,04,06,6.40
2008,06,21,04,07,4.80
2008,06,21,04,08,4.80
2008,06,21,04,09,4.80
2008,06,21,04,10,4.80
2008,06,21,04,11,4.80
2008,06,21,04,12,4.80
2008,06,21,04,13,8.10
2008,06,21,04,14,8.10
2008,06,21,04,15,8.10
2008,06,21,04,16,6.40
2008,06,21,04,17,6.40
2008,06,21,04,18,3.20
2008,06,21,04,19,4.80
2008,06,21,04,20,3.20
2008,06,21,04,21,3.20
2008,06,21,04,22,3.20
2008,06,21,04,23,1.60
2008,06,21,04,24,1.60
2008,06,21,04,25,4.80
2008,06,21,04,26,4.80
2008,06,21,04,27,1.60
2008,06,21,04,28,1.60
2008,06,21,04,29,1.60
2008,06,21,04,30,1.60
2008,06,21,04,31,3.20
2008,06,21,04,32,1.60
2008,06,21,04,33,1.60
2008,06,21,04,34,3.20
2008,06,21,04,35,3.20
2008,06,21,04,36,3.20
2008,06,21,04,37,6.40
2008,06,21,04,38,6.40
2008,06,21,04,39,4.80
2008,06,21,04,40,3.20
2008,06,21,04,41,1.60
2008,06,21,04,42,4.80
2008,06,21,04,43,1.60
2008,06,21,04,44,4.80
2008,06,21,04,45,4.80
2008,06,21,04,46,4.80
2008,06,21,04,47,1.60
2008,06,21,04,48,1.60
2008,06,21,04,49,0.00
2008,06,21,04,50,1.60
2008,06,21,04,51,0.00
2008,06,21,04,52,1.60
2008,06,21,04,53,1.60
2008,06,21,04,54,3.20
2008,06,21,04,55,3.20
2008,06,21,04,56,1.60
2008,06,21,04,57,3.20
2008,06,21,04,58,3.20
2008,06,21,04,59,1.60
2008,06,21,05,00,1.60
2008,06,21,05,01,0.00
2008,06,21,05,02,1.60
2008,06,21,05,03,3.20
2008,06,21,05,04,3.20
2008,06,21,05,05,0.00
2008,06,21,05,06,0.00
2008,06,21,05,07,0.00
2008,06,21,05,08,1.60
2008,06,21,05,09,1.60
2008,06,21,05,10,0.00
2008,06,21,05,11,0.00
2008,06,21,05,12,0.00
2008,06,21,05,13,0.00
2008,06,21,05,14,0.00
2008,06,21,05,15,1.60
2008,06,21,05,16,0.00
2008,06,21,05,17,0.00
2008,06,21,05,18,0.00
2008,06,21,05,19,0.00
2008,06,21,05,20,0.00
2008,06,21,05,21,0.00
2008,06,21,05,22,0.00
2008,06,21,05,23,0.00
2008,06,21,05,24,0.00
2008,06,21,05,25,0.00
2008,06,21,05,26,0.00
2008,06,21,05,27,0.00
2008,06,21,05,28,0.00
2008,06,21,05,29,0.00
2008,06,21,05,30,1.60
2008,06,21,05,31,3.20
2008,06,21,05,32,1.60
2008,06,21,05,33,1.60
2008,06,21,05,34,1.60
2008,06,21,05,35,1.60
2008,06,21,05,36,1.60
2008,06,21,05,37,3.20
2008,06,21,05,38,3.20
2008,06,21,05,39,3.20
2008,06,21,05,40,1.60
2008,06,21,05,41,1.60
2008,06,21,05,42,1.60
2008,06,21,05,43,1.60
2008,06,21,05,44,1.60
2008,06,21,05,45,1.60
2008,06,21,05,46,1.60
2008,06,21,05,47,3.20
2008,06,21,05,48,3.20
2008,06,21,05,49,1.60
2008,06,21,05,50,0.00
2008,06,21,05,51,0.00
2008,06,21,05,52,0.00
2008,06,21,05,53,3.20
2008,06,21,05,54,3.20
2008,06,21,05,55,1.60
2008,06,21,05,56,1.60
2008,06,21,05,57,0.00
2008,06,21,05,58,1.60
2008,06,21,05,59,0.00
2008,06,21,06,00,0.00
2008,06,21,06,01,0.00
2008,06,21,06,02,0.00
2008,06,21,06,03,1.60
2008,06,21,06,04,3.20
2008,06,21,06,05,3.20
2008,06,21,06,06,1.60
2008,06,21,06,07,3.20
2008,06,21,06,08,1.60
2008,06,21,06,09,1.60
2008,06,21,06,10,0.00
2008,06,21,06,11,0.00
2008,06,21,06,12,0.00
2008,06,21,06,13,0.00
2008,06,21,06,14,0.00
2008,06,21,06,15,0.00
2008,06,21,06,16,1.60
2008,06,21,06,17,1.60
2008,06,21,06,18,1.60
2008,06,21,06,19,0.00
2008,06,21,06,20,0.00
2008,06,21,06,21,0.00
2008,06,21,06,22,0.00
2008,06,21,06,23,0.00
2008,06,21,06,24,0.00
2008,06,21,06,25,1.60
2008,06,21,06,26,3.20
2008,06,21,06,27,3.20
2008,06,21,06,28,1.60
2008,06,21,06,29,1.60
2008,06,21,06,30,1.60
2008,06,21,06,31,0.00
2008,06,21,06,32,0.00
2008,06,21,06,33,0.00
2008,06,21,06,34,0.00
2008,06,21,06,35,0.00
2008,06,21,06,36,0.00
2008,06,21,06,37,0.00
2008,06,21,06,38,0.00
2008,06,21,06,39,0.00
2008,06,21,06,40,1.60
2008,06,21,06,41,1.60
2008,06,21,06,42,0.00
2008,06,21,06,43,0.00
2008,06,21,06,44,0.00
2008,06,21,06,45,0.00
2008,06,21,06,46,0.00
2008,06,21,06,47,0.00
2008,06,21,06,48,0.00
2008,06,21,06,49,0.00
2008,06,21,06,50,0.00
2008,06,21,06,51,0.00
2008,06,21,06,52,0.00
2008,06,21,06,53,0.00
2008,06,21,06,54,0.00
2008,06,21,06,55,1.60
2008,06,21,06,56,1.60
2008,06,21,06,57,1.60
2008,06,21,06,58,1.60
2008,06,21,06,59,0.00
2008,06,21,07,00,0.00
2008,06,21,07,01,0.00
2008,06,21,07,02,0.00
2008,06,21,07,03,1.60
2008,06,21,07,04,0.00
2008,06,21,07,05,0.00
2008,06,21,07,06,0.00
2008,06,21,07,07,0.00
2008,06,21,07,08,0.00
2008,06,21,07,09,0.00
2008,06,21,07,10,0.00
2008,06,21,07,11,1.60
2008,06,21,07,12,1.60
2008,06,21,07,13,1.60
2008,06,21,07,14,0.00
2008,06,21,07,15,0.00
2008,06,21,07,16,0.00
2008,06,21,07,17,0.00
2008,06,21,07,18,0.00
2008,06,21,07,19,0.00
2008,06,21,07,20,0.00
2008,06,21,07,21,0.00
2008,06,21,07,22,1.60
2008,06,21,07,23,1.60
2008,06,21,07,24,1.60
2008,06,21,07,25,1.60
2008,06,21,07,26,4.80
2008,06,21,07,27,3.20
2008,06,21,07,28,3.20
2008,06,21,07,29,4.80
2008,06,21,07,30,4.80
2008,06,21,07,31,6.40
2008,06,21,07,32,6.40
2008,06,21,07,33,6.40
2008,06,21,07,34,4.80
2008,06,21,07,35,4.80
2008,06,21,07,36,3.20
2008,06,21,07,37,4.80
2008,06,21,07,38,4.80
2008,06,21,07,39,3.20
2008,06,21,07,40,1.60
2008,06,21,07,41,0.00
2008,06,21,07,42,0.00
2008,06,21,07,43,1.60
2008,06,21,07,44,3.20
2008,06,21,07,45,4.80
2008,06,21,07,46,6.40
2008,06,21,07,47,4.80
2008,06,21,07,48,6.40
2008,06,21,07,49,4.80
2008,06,21,07,50,3.20
2008,06,21,07,51,3.20
2008,06,21,07,52,4.80
2008,06,21,07,53,3.20
2008,06,21,07,54,1.60
2008,06,21,07,55,0.00
2008,06,21,07,56,0.00
2008,06,21,07,57,0.00
2008,06,21,07,58,0.00
2008,06,21,07,59,0.00
2008,06,21,08,00,0.00
2008,06,21,08,01,1.60
2008,06,21,08,02,3.20
2008,06,21,08,03,3.20
2008,06,21,08,04,1.60
2008,06,21,08,05,1.60
2008,06,21,08,06,0.00
2008,06,21,08,07,0.00
2008,06,21,08,08,0.00
2008,06,21,08,09,0.00
2008,06,21,08,10,1.60
2008,06,21,08,11,1.60
2008,06,21,08,12,3.20
2008,06,21,08,13,1.60
2008,06,21,08,14,3.20
2008,06,21,08,15,1.60
2008,06,21,08,16,1.60
2008,06,21,08,17,3.20
2008,06,21,08,18,1.60
2008,06,21,08,19,3.20
2008,06,21,08,20,3.20
2008,06,21,08,21,4.80
2008,06,21,08,22,4.80
2008,06,21,08,23,3.20
2008,06,21,08,24,1.60
2008,06,21,08,25,3.20
2008,06,21,08,26,1.60
2008,06,21,08,27,0.00
2008,06,21,08,28,0.00
2008,06,21,08,29,1.60
2008,06,21,08,30,0.00
2008,06,21,08,31,1.60
2008,06,21,08,32,1.60
2008,06,21,08,33,0.00
2008,06,21,08,34,0.00
2008,06,21,08,35,1.60
2008,06,21,08,36,1.60
2008,06,21,08,37,1.60
2008,06,21,08,38,0.00
2008,06,21,08,39,0.00
2008,06,21,08,40,1.60
2008,06,21,08,41,1.60
2008,06,21,08,42,1.60
2008,06,21,08,43,1.60
2008,06,21,08,44,1.60
2008,06,21,08,45,1.60
2008,06,21,08,46,0.00
2008,06,21,08,47,1.60
2008,06,21,08,48,3.20
2008,06,21,08,49,3.20
2008,06,21,08,50,1.60
2008,06,21,08,51,0.00
2008,06,21,08,52,1.60
2008,06,21,08,53,0.00
2008,06,21,08,54,0.00
2008,06,21,08,55,1.60
2008,06,21,08,56,0.00
2008,06,21,08,57,0.00
2008,06,21,08,58,1.60
2008,06,21,08,59,3.20
2008,06,21,09,00,3.20
2008,06,21,09,01,3.20
2008,06,21,09,02,4.80
2008,06,21,09,03,4.80
2008,06,21,09,04,3.20
2008,06,21,09,05,3.20
2008,06,21,09,06,4.80
2008,06,21,09,07,4.80
2008,06,21,09,08,3.20
2008,06,21,09,09,1.60
2008,06,21,09,10,1.60
2008,06,21,09,11,3.20
2008,06,21,09,12,3.20
2008,06,21,09,13,3.20
2008,06,21,09,14,3.20
2008,06,21,09,15,1.60
2008,06,21,09,16,4.80
2008,06,21,09,17,4.80
2008,06,21,09,18,3.20
2008,06,21,09,19,3.20
2008,06,21,09,20,3.20
2008,06,21,09,21,1.60
2008,06,21,09,22,3.20
2008,06,21,09,23,4.80
2008,06,21,09,24,4.80
2008,06,21,09,25,3.20
2008,06,21,09,26,1.60
2008,06,21,09,27,1.60
2008,06,21,09,28,1.60
2008,06,21,09,29,0.00
2008,06,21,09,30,0.00
2008,06,21,09,31,1.60
2008,06,21,09,32,0.00
2008,06,21,09,33,0.00
2008,06,21,09,34,1.60
2008,06,21,09,35,1.60
2008,06,21,09,36,1.60
2008,06,21,09,37,0.00
2008,06,21,09,38,0.00
2008,06,21,09,39,0.00
2008,06,21,09,40,1.60
2008,06,21,09,41,0.00
2008,06,21,09,42,0.00
2008,06,21,09,43,1.60
2008,06,21,09,44,0.00
2008,06,21,09,45,0.00
2008,06,21,09,46,1.60
2008,06,21,09,47,1.60
2008,06,21,09,48,1.60
2008,06,21,09,49,3.20
2008,06,21,09,50,3.20
2008,06,21,09,51,4.80
2008,06,21,09,52,6.40
2008,06,21,09,53,6.40
2008,06,21,09,54,3.20
2008,06,21,09,55,4.80
2008,06,21,09,56,6.40
2008,06,21,09,57,6.40
2008,06,21,09,58,4.80
2008,06,21,09,59,3.20
2008,06,21,10,00,4.80
2008,06,21,10,01,6.40
2008,06,21,10,02,3.20
2008,06,21,10,03,1.60
2008,06,21,10,04,4.80
2008,06,21,10,05,1.60
2008,06,21,10,06,3.20
2008,06,21,10,07,6.40
2008,06,21,10,08,3.20
2008,06,21,10,09,4.80
2008,06,21,10,10,8.10
2008,06,21,10,11,9.60
2008,06,21,10,12,8.10
2008,06,21,10,13,9.60
2008,06,21,10,14,11.30
2008,06,21,10,15,11.30
2008,06,21,10,16,14.50
2008,06,21,10,17,9.60
2008,06,21,10,18,11.30
2008,06,21,10,19,11.30
2008,06,21,10,20,8.10
2008,06,21,10,21,4.80
2008,06,21,10,22,4.80
2008,06,21,10,23,3.20
2008,06,21,10,24,6.40
2008,06,21,10,25,11.30
2008,06,21,10,26,8.10
2008,06,21,10,27,17.70
2008,06,21,10,28,9.60
2008,06,21,10,29,14.50
2008,06,21,10,30,14.50
2008,06,21,10,31,12.90
2008,06,21,10,32,16.10
2008,06,21,10,33,11.30
2008,06,21,10,34,8.10
2008,06,21,10,35,4.80
2008,06,21,10,36,6.40
2008,06,21,10,37,4.80
2008,06,21,10,38,6.40
2008,06,21,10,39,8.10
2008,06,21,10,40,9.60
2008,06,21,10,41,6.40
2008,06,21,10,42,4.80
2008,06,21,10,43,4.80
2008,06,21,10,44,4.80
2008,06,21,10,45,4.80
2008,06,21,10,46,6.40
2008,06,21,10,47,11.30
2008,06,21,10,48,11.30
2008,06,21,10,49,4.80
2008,06,21,10,50,6.40
2008,06,21,10,51,4.80
2008,06,21,10,52,3.20
2008,06,21,10,53,6.40
2008,06,21,10,54,9.60
2008,06,21,10,55,8.10
2008,06,21,10,56,14.50
2008,06,21,10,57,16.10
2008,06,21,10,58,16.10
2008,06,21,10,59,17.70
2008,06,21,11,00,14.50
2008,06,21,11,01,8.10
2008,06,21,11,02,4.80
2008,06,21,11,03,3.20
2008,06,21,11,04,4.80
2008,06,21,11,05,8.10
2008,06,21,11,06,9.60
2008,06,21,11,07,6.40
2008,06,21,11,08,8.10
2008,06,21,11,09,4.80
2008,06,21,11,10,3.20
2008,06,21,11,11,4.80
2008,06,21,11,12,3.20
2008,06,21,11,13,3.20
2008,06,21,11,14,0.00
2008,06,21,11,15,4.80
2008,06,21,11,16,6.40
2008,06,21,11,17,8.10
2008,06,21,11,18,8.10
2008,06,21,11,19,8.10
2008,06,21,11,20,6.40
2008,06,21,11,21,1.60
2008,06,21,11,22,3.20
2008,06,21,11,23,3.20
2008,06,21,11,24,3.20
2008,06,21,11,25,3.20
2008,06,21,11,26,3.20
2008,06,21,11,27,3.20
2008,06,21,11,28,1.60
2008,06,21,11,29,3.20
2008,06,21,11,30,3.20
2008,06,21,11,31,3.20
2008,06,21,11,32,6.40
2008,06,21,11,33,6.40
2008,06,21,11,34,8.10
2008,06,21,11,35,8.10
2008,06,21,11,36,11.30
2008,06,21,11,37,12.90
2008,06,21,11,38,8.10
2008,06,21,11,39,8.10
2008,06,21,11,40,8.10
2008,06,21,11,41,4.80
2008,06,21,11,42,6.40
2008,06,21,11,43,4.80
2008,06,21,11,44,3.20
2008,06,21,11,45,4.80
2008,06,21,11,46,3.20
2008,06,21,11,47,4.80
2008,06,21,11,48,6.40
2008,06,21,11,49,4.80
2008,06,21,11,50,6.40
2008,06,21,11,51,11.30
2008,06,21,11,52,9.60
2008,06,21,11,53,4.80
2008,06,21,11,54,11.30
2008,06,21,11,55,9.60
2008,06,21,11,56,9.60
2008,06,21,11,57,11.30
2008,06,21,11,58,6.40
2008,06,21,11,59,14.50
2008,06,21,12,00,16.10
2008,06,21,12,01,6.40
2008,06,21,12,02,8.10
2008,06,21,12,03,17.70
2008,06,21,12,04,17.70
2008,06,21,12,05,14.50
2008,06,21,12,06,14.50
2008,06,21,12,07,17.70
2008,06,21,12,08,17.70
2008,06,21,12,09,17.70
2008,06,21,12,10,19.30
2008,06,21,12,11,16.10
2008,06,21,12,12,11.30
2008,06,21,12,13,8.10
2008,06,21,12,14,8.10
2008,06,21,12,15,8.10
2008,06,21,12,16,3.20
2008,06,21,12,17,4.80
2008,06,21,12,18,8.10
2008,06,21,12,19,4.80
2008,06,21,12,20,9.60
2008,06,21,12,21,9.60
2008,06,21,12,22,9.60
2008,06,21,12,23,6.40
2008,06,21,12,24,8.10
2008,06,21,12,25,6.40
2008,06,21,12,26,8.10
2008,06,21,12,27,9.60
2008,06,21,12,28,9.60
2008,06,21,12,29,9.60
2008,06,21,12,30,11.30
2008,06,21,12,31,14.50
2008,06,21,12,32,17.70
2008,06,21,12,33,17.70
2008,06,21,12,34,14.50
2008,06,21,12,35,17.70
2008,06,21,12,36,22.50
2008,06,21,12,37,17.70
2008,06,21,12,38,20.90
2008,06,21,12,39,16.10
2008,06,21,12,40,17.70
2008,06,21,12,41,12.90
2008,06,21,12,42,8.10
2008,06,21,12,43,14.50
2008,06,21,12,44,9.60
2008,06,21,12,45,6.40
2008,06,21,12,46,6.40
2008,06,21,12,47,8.10
2008,06,21,12,48,17.70
2008,06,21,12,49,16.10
2008,06,21,12,50,17.70
2008,06,21,12,51,16.10
2008,06,21,12,52,17.70
2008,06,21,12,53,14.50
2008,06,21,12,54,14.50
2008,06,21,12,55,11.30
2008,06,21,12,56,16.10
2008,06,21,12,57,14.50
2008,06,21,12,58,6.40
2008,06,21,12,59,12.90
2008,06,21,13,00,8.10
2008,06,21,13,01,3.20
2008,06,21,13,02,3.20
2008,06,21,13,03,3.20
2008,06,21,13,04,4.80
2008,06,21,13,05,1.60
2008,06,21,13,06,4.80
2008,06,21,13,07,6.40
2008,06,21,13,08,4.80
2008,06,21,13,09,4.80
2008,06,21,13,10,6.40
2008,06,21,13,11,11.30
2008,06,21,13,12,9.60
2008,06,21,13,13,8.10
2008,06,21,13,14,6.40
2008,06,21,13,15,8.10
2008,06,21,13,16,9.60
2008,06,21,13,17,9.60
2008,06,21,13,18,8.10
2008,06,21,13,19,8.10
2008,06,21,13,20,6.40
2008,06,21,13,21,3.20
2008,06,21,13,22,4.80
2008,06,21,13,23,3.20
2008,06,21,13,24,1.60
2008,06,21,13,25,1.60
2008,06,21,13,26,4.80
2008,06,21,13,27,11.30
2008,06,21,13,28,14.50
2008,06,21,13,29,11.30
2008,06,21,13,30,11.30
2008,06,21,13,31,3.20
2008,06,21,13,32,1.60
2008,06,21,13,33,1.60
2008,06,21,13,34,3.20
2008,06,21,13,35,1.60
2008,06,21,13,36,1.60
2008,06,21,13,37,8.10
2008,06,21,13,38,17.70
2008,06,21,13,39,20.90
2008,06,21,13,40,16.10
2008,06,21,13,41,14.50
2008,06,21,13,42,9.60
2008,06,21,13,43,4.80
2008,06,21,13,44,6.40
2008,06,21,13,45,6.40
2008,06,21,13,46,8.10
2008,06,21,13,47,6.40
2008,06,21,13,48,6.40
2008,06,21,13,49,4.80
2008,06,21,13,50,6.40
2008,06,21,13,51,9.60
2008,06,21,13,52,11.30
2008,06,21,13,53,9.60
2008,06,21,13,54,14.50
2008,06,21,13,55,16.10
2008,06,21,13,56,8.10
2008,06,21,13,57,6.40
2008,06,21,13,58,6.40
2008,06,21,13,59,11.30
2008,06,21,14,00,9.60
2008,06,21,14,01,17.70
2008,06,21,14,02,19.30
2008,06,21,14,03,11.30
2008,06,21,14,04,14.50
2008,06,21,14,05,14.50
2008,06,21,14,06,6.40
2008,06,21,14,07,8.10
2008,06,21,14,08,11.30
2008,06,21,14,09,8.10
2008,06,21,14,10,11.30
2008,06,21,14,11,9.60
2008,06,21,14,12,11.30
2008,06,21,14,13,11.30
2008,06,21,14,14,3.20
2008,06,21,14,15,4.80
2008,06,21,14,16,12.90
2008,06,21,14,17,11.30
2008,06,21,14,18,4.80
2008,06,21,14,19,4.80
2008,06,21,14,20,8.10
2008,06,21,14,21,1.60
2008,06,21,14,22,3.20
2008,06,21,14,23,4.80
2008,06,21,14,24,9.60
2008,06,21,14,25,9.60
2008,06,21,14,26,4.80
2008,06,21,14,27,6.40
2008,06,21,14,28,8.10
2008,06,21,14,29,9.60
2008,06,21,14,30,8.10
2008,06,21,14,31,4.80
2008,06,21,14,32,9.60
2008,06,21,14,33,20.90
2008,06,21,14,34,20.90
2008,06,21,14,35,14.50
2008,06,21,14,36,16.10
2008,06,21,14,37,9.60
2008,06,21,14,38,12.90
2008,06,21,14,39,8.10
2008,06,21,14,40,16.10
2008,06,21,14,41,11.30
2008,06,21,14,42,14.50
2008,06,21,14,43,14.50
2008,06,21,14,44,8.10
2008,06,21,14,45,6.40
2008,06,21,14,46,6.40
2008,06,21,14,47,4.80
2008,06,21,14,48,4.80
2008,06,21,14,49,6.40
2008,06,21,14,50,4.80
2008,06,21,14,51,6.40
2008,06,21,14,52,8.10
2008,06,21,14,53,8.10
2008,06,21,14,54,9.60
2008,06,21,14,55,8.10
2008,06,21,14,56,4.80
2008,06,21,14,57,4.80
2008,06,21,14,58,4.80
2008,06,21,14,59,4.80
2008,06,21,15,00,8.10
2008,06,21,15,01,11.30
2008,06,21,15,02,3.20
2008,06,21,15,03,6.40
2008,06,21,15,04,6.40
2008,06,21,15,05,6.40
2008,06,21,15,06,8.10
2008,06,21,15,07,9.60
2008,06,21,15,08,14.50
2008,06,21,15,09,11.30
2008,06,21,15,10,11.30
2008,06,21,15,11,14.50
2008,06,21,15,12,16.10
2008,06,21,15,13,14.50
2008,06,21,15,14,6.40
2008,06,21,15,15,14.50
2008,06,21,15,16,6.40
2008,06,21,15,17,4.80
2008,06,21,15,18,3.20
2008,06,21,15,19,6.40
2008,06,21,15,20,3.20
2008,06,21,15,21,6.40
2008,06,21,15,22,12.90
2008,06,21,15,23,12.90
2008,06,21,15,24,11.30
2008,06,21,15,25,8.10
2008,06,21,15,26,9.60
2008,06,21,15,27,4.80
2008,06,21,15,28,3.20
2008,06,21,15,29,6.40
2008,06,21,15,30,4.80
2008,06,21,15,31,8.10
2008,06,21,15,32,9.60
2008,06,21,15,33,8.10
2008,06,21,15,34,14.50
2008,06,21,15,35,11.30
2008,06,21,15,36,9.60
2008,06,21,15,37,8.10
2008,06,21,15,38,6.40
2008,06,21,15,39,8.10
2008,06,21,15,40,3.20
2008,06,21,15,41,6.40
2008,06,21,15,42,8.10
2008,06,21,15,43,9.60
2008,06,21,15,44,11.30
2008,06,21,15,45,6.40
2008,06,21,15,46,9.60
2008,06,21,15,47,8.10
2008,06,21,15,48,17.70
2008,06,21,15,49,17.70
2008,06,21,15,50,16.10
2008,06,21,15,51,8.10
2008,06,21,15,52,12.90
2008,06,21,15,53,16.10
2008,06,21,15,54,11.30
2008,06,21,15,55,8.10
2008,06,21,15,56,9.60
2008,06,21,15,57,8.10
2008,06,21,15,58,11.30
2008,06,21,15,59,11.30
2008,06,21,16,00,3.20
2008,06,21,16,01,4.80
2008,06,21,16,02,4.80
2008,06,21,16,03,4.80
2008,06,21,16,04,6.40
2008,06,21,16,05,4.80
2008,06,21,16,06,6.40
2008,06,21,16,07,3.20
2008,06,21,16,08,3.20
2008,06,21,16,09,6.40
2008,06,21,16,10,6.40
2008,06,21,16,11,8.10
2008,06,21,16,12,4.80
2008,06,21,16,13,6.40
2008,06,21,16,14,9.60
2008,06,21,16,15,8.10
2008,06,21,16,16,9.60
2008,06,21,16,17,8.10
2008,06,21,16,18,11.30
2008,06,21,16,19,11.30
2008,06,21,16,20,8.10
2008,06,21,16,21,3.20
2008,06,21,16,22,8.10
2008,06,21,16,23,9.60
2008,06,21,16,24,4.80
2008,06,21,16,25,11.30
2008,06,21,16,26,6.40
2008,06,21,16,27,4.80
2008,06,21,16,28,3.20
2008,06,21,16,29,4.80
2008,06,21,16,30,4.80
2008,06,21,16,31,3.20
2008,06,21,16,32,0.00
2008,06,21,16,33,3.20
2008,06,21,16,34,4.80
2008,06,21,16,35,1.60
2008,06,21,16,36,3.20
2008,06,21,16,37,4.80
2008,06,21,16,38,4.80
2008,06,21,16,39,4.80
2008,06,21,16,40,4.80
2008,06,21,16,41,6.40
2008,06,21,16,42,9.60
2008,06,21,16,43,8.10
2008,06,21,16,44,8.10
2008,06,21,16,45,8.10
2008,06,21,16,46,6.40
2008,06,21,16,47,9.60
2008,06,21,16,48,9.60
2008,06,21,16,49,6.40
2008,06,21,16,50,9.60
2008,06,21,16,51,6.40
2008,06,21,16,52,4.80
2008,06,21,16,53,4.80
2008,06,21,16,54,4.80
2008,06,21,16,55,6.40
2008,06,21,16,56,4.80
2008,06,21,16,57,4.80
2008,06,21,16,58,3.20
2008,06,21,16,59,3.20
2008,06,21,17,00,1.60
2008,06,21,17,01,9.60
2008,06,21,17,02,8.10
2008,06,21,17,03,6.40
2008,06,21,17,04,8.10
2008,06,21,17,05,14.50
2008,06,21,17,06,11.30
2008,06,21,17,07,9.60
2008,06,21,17,08,11.30
2008,06,21,17,09,8.10
2008,06,21,17,10,8.10
2008,06,21,17,11,9.60
2008,06,21,17,12,8.10
2008,06,21,17,13,8.10
2008,06,21,17,14,6.40
2008,06,21,17,15,9.60
2008,06,21,17,16,8.10
2008,06,21,17,17,6.40
2008,06,21,17,18,6.40
2008,06,21,17,19,9.60
2008,06,21,17,20,8.10
2008,06,21,17,21,8.10
2008,06,21,17,22,3.20
2008,06,21,17,23,4.80
2008,06,21,17,24,6.40
2008,06,21,17,25,6.40
2008,06,21,17,26,6.40
2008,06,21,17,27,6.40
2008,06,21,17,28,3.20
2008,06,21,17,29,1.60
2008,06,21,17,30,3.20
2008,06,21,17,31,3.20
2008,06,21,17,32,4.80
2008,06,21,17,33,6.40
2008,06,21,17,34,6.40
2008,06,21,17,35,3.20
2008,06,21,17,36,6.40
2008,06,21,17,37,6.40
2008,06,21,17,38,8.10
2008,06,21,17,39,8.10
2008,06,21,17,40,8.10
2008,06,21,17,41,6.40
2008,06,21,17,42,6.40
2008,06,21,17,43,6.40
2008,06,21,17,44,6.40
2008,06,21,17,45,9.60
2008,06,21,17,46,6.40
2008,06,21,17,47,8.10
2008,06,21,17,48,9.60
2008,06,21,17,49,8.10
2008,06,21,17,50,6.40
2008,06,21,17,51,8.10
2008,06,21,17,52,9.60
2008,06,21,17,53,8.10
2008,06,21,17,54,9.60
2008,06,21,17,55,11.30
2008,06,21,17,56,11.30
2008,06,21,17,57,11.30
2008,06,21,17,58,6.40
2008,06,21,17,59,6.40
2008,06,21,18,00,3.20
2008,06,21,18,01,6.40